sat.trackr.live / text

‹ back to catalog

TJS-14

NORAD 62804 · 2025-017A

PAYLOAD ACTIVE UNKNOWN

§ Identity

Operator
Country
PRC
Launch date
2025-01-23
Launch site
XICLF
Launch vehicle
Mass (kg)
RCS (m²)

Purposes: comms

External: N2YO · Heavens-Above · Gunter

§ Orbital elements

Epoch: 2026-05-25T03:49:54.255072Z

Period
1,436.05 min
Inclination
0.8336°
Eccentricity
0.0000023
Mean motion
1.00274873 rev/d
Perigee alt
35,785.6 km
Apogee alt
35,785.8 km
Semi-major
42,163.9 km
B*
0.0000e+0
RAAN
294.1638°
Arg perigee
159.7333°
Mean anomaly
224.7225°
Rev number
504

§ Raw data

TJS-141 62804U 25017A   26145.15965573  .00000113  00000+0  00000+0 0  99972 62804   0.8336 294.1638 0000023 159.7333 224.7225  1.00274873  5046

JSON: /api/v1/satellites/62804 · /tle

For live sub-satellite position, see the globe view (requires WebGL).

§ Visibility from observer

Set your observer location to see the next 7 days of passes ≥ 10°. The values pass through the URL so the page stays shareable.

No JS? Fill the form by hand. The geolocation button needs JavaScript.